Regional Weather Roundup
Issued by NWS Spokane, WA

Home | Current Version | Previous Version | Text Only | Print | Product List | Glossary On
Versions: 1 2 3 4 5 6 7 8 9 10 11 12 13 14 15 16 17 18 19 20 21 22 23 24 25 26 27 28 29 30 31 32 33 34 35 36 37 38 39 40 41 42 43 44 45 46 47 48 49 50
000
NZUS01 KOTX 301505
RWROTX

Eastern Washington/Northern Idaho Roundup
National Weather Service, Spokane WA
800 AM PDT THU MAR 30 2017

Note: "fair" indicated few or no clouds below 12,000 feet with no
significant weather and/or obstructions to visibility.

...Northeast Washington and Northern Idaho Panhandle...

CITY           SKY/WX    TMP DP  RH WIND       PRES   REMARKS
Spokane Intl   PTSUNNY   37  33  85 S6        29.86R
Spokane Downto PTSUNNY   41  36  82 SW3       29.87R
Coeur d Alene  PTSUNNY   40  36  86 W5        29.86R
Deer Park      MOSUNNY   35  33  92 CALM      29.85R
Sandpoint      CLOUDY    39  37  93 CALM      29.83R
Bonners Ferry  FOG       37  37 100 CALM      29.81R VSB<1/4

...Southeast Washington and southern Idaho Panhandle...

CITY           SKY/WX    TMP DP  RH WIND       PRES   REMARKS
Walla Walla    CLOUDY    43  38  82 S9        29.98R
Pullman/Moscow CLOUDY    39  33  79 W10       29.91R
Lewiston       CLOUDY    46  34  62 NW9       29.92R
Lowell           N/A     44  42  93 CALM      29.89R
Grangeville    CLOUDY    39  36  87 N7        29.86R

...Columbia Basin...

CITY           SKY/WX    TMP DP  RH WIND       PRES   REMARKS
Ephrata        MOSUNNY   47  25  42 NW14G20   29.90R
Moses Lake     MOSUNNY   41  31  67 W13       29.92R
Pasco          PTSUNNY   41  35  79 SW6       29.98S
Richland       CLOUDY    45  36  71 SW12      29.98R
Hermiston      PTSUNNY   43  37  79 W12G20    29.99S
Pendleton      CLOUDY    40  35  83 W23G30    29.97R

...East Slopes Cascades...

CITY           SKY/WX    TMP DP  RH WIND       PRES   REMARKS
The Dalles     MOSUNNY   48  36  63 W6        30.07R
Yakima         SUNNY     38  32  79 W5        29.99R
Ellensburg     SUNNY     41  31  67 NW21G31   29.95R
Wenatchee      MOSUNNY   42  29  59 W12       29.94R
Omak           SUNNY     39  33  79 CALM      29.90R
Sunnyside      PTSUNNY   34  33  95 CALM      29.99S

...Southern British Columbia...

CITY           SKY/WX    TMP DP  RH WIND       PRES   REMARKS

...Western Montana...

CITY           SKY/WX    TMP DP  RH WIND       PRES   REMARKS
Kalispell      PTSUNNY   39  37  92 CALM      29.77S
Missoula       CLOUDY    41  38  89 CALM      29.82R

...Neighboring Cities...

CITY           SKY/WX    TMP DP  RH WIND       PRES   REMARKS
Seattle        CLOUDY    43  40  89 S6        30.11R
Portland       PTSUNNY   45  39  79 W7        30.17R
Boise          RAIN      38  38 100 NW23G31   29.73S FOG
Great Falls    CLOUDY    45  34  65 SW8       29.72R



USA.gov is the U.S. government's official web portal to all federal, state and local government web resources and services.